Content
SEND FEEDBACK

Daily
Averages
Monthly
Summary
United States of America

AGANA, GUAM


Home > North America > United States > Guam
Elevation: 74 meters     Latitude: 13 29N     Longitude: 144 48E

WEATHER
 
SELECT A DAY
Number of Records: 213,129;   Date Range: 1/1/95 - 10/1/14
 
SHARE

PRINT THIS DATA

[ ← Previous Day ]
WEATHER ALMANAC - 29 NOVEMBER, 2013
[ Next Day → ]
[ °F ]   °C
Weather ElementAverageHighLow
Temperature28.1 °C31.1 °C (10:54 am)24.4 °C (5:54 am)
Dewpoint23.1 °C24 °C (12:33 pm)21.7 °C (9:54 am)
Humidity74.7 %91 % (5:54 am)59 % (10:54 am)
Barometer1011.9 hPa1013.9 hPa (8:54 am)1009.8 hPa (2:54 pm)
Wind Speed11.7 km/h18.5 km/h (1:54 pm)
Weather ElementAverage
Visibility16.1 km
Wind DirectionENE (73.3 °)

Weather ElementTotal
Precipitation---
Cooling Degree Days9.4 (Base 18.3)
Growing Degree Days17.8 (Base 10)
Averaged from 24 records on 29 November, 2013
WEATHER CONDITIONS BREAKOUT
WIND DIRECTION BREAKOUT
WEATHER BY HOUR - 29 NOVEMBER, 2013
[ °F ]   °C
Local TimeTemperatureDewpointHumidityBarometerVisibilityWind DirectionWind SpeedGust SpeedPrecipitationEventsConditions
1:54 AM25.6 °C22.8 °C84 %1011.9 hPa16.1 kmENE (60°)9.3 km/hClear
2:54 AM26.1 °C23.3 °C84 %1011.9 hPa16.1 kmNE (50°)7.4 km/hClear
3:54 AM26.7 °C23.3 °C81 %1011.5 hPa16.1 kmENE (60°)11.1 km/hClear
4:54 AM26.1 °C22.8 °C82 %1011.9 hPa16.1 kmEast (90°)7.4 km/hClear
5:54 AM24.4 °C22.8 °C91 %1012.2 hPa16.1 kmENE (60°)7.4 km/hClear
6:54 AM25.6 °C23.3 °C87 %1012.5 hPa16.1 kmNE (50°)7.4 km/hScattered Clouds
7:54 AM27.8 °C23.9 °C79 %1013.5 hPa16.1 kmEast (80°)9.3 km/hClear
8:54 AM29.4 °C23.3 °C69 %1013.9 hPa16.1 kmENE (60°)14.8 km/hClear
9:54 AM30 °C21.7 °C61 %1013.9 hPa16.1 kmEast (80°)13 km/hPartly Cloudy
10:54 AM31.1 °C22.2 °C59 %1013.2 hPa16.1 kmNE (40°)14.8 km/hPartly Cloudy
11:54 AM30 °C22.8 °C65 %1012.2 hPa16.1 kmENE (70°)14.8 km/hScattered Clouds
12:33 PM30 °C24 °C70 %1012.2 hPa16.1 kmNE (40°)13 km/hMostly Cloudy
12:54 PM31.1 °C22.8 °C61 %1011.2 hPa16.1 kmENE (70°)14.8 km/hScattered Clouds
1:54 PM30.6 °C23.3 °C65 %1010.2 hPa16.1 kmESE (110°)18.5 km/hPartly Cloudy
2:54 PM30 °C22.8 °C65 %1009.8 hPa16.1 kmEast (100°)14.8 km/hClear
3:54 PM30 °C22.8 °C65 %1009.8 hPa16.1 kmEast (80°)11.1 km/hPartly Cloudy
4:54 PM28.9 °C23.3 °C72 %1010.2 hPa16.1 kmEast (100°)11.1 km/hClear
5:54 PM27.8 °C23.3 °C76 %1010.5 hPa16.1 kmEast (90°)11.1 km/hClear
6:54 PM27.8 °C23.3 °C76 %1011.2 hPa16.1 kmENE (70°)13 km/hClear
7:54 PM26.7 °C23.3 °C81 %1011.9 hPa16.1 kmEast (80°)7.4 km/hClear
8:54 PM27.2 °C23.3 °C79 %1012.2 hPa16.1 kmEast (90°)9.3 km/hPartly Cloudy
9:54 PM27.2 °C23.9 °C82 %1012.2 hPa16.1 kmEast (80°)14.8 km/hPartly Cloudy
10:54 PM27.2 °C23.3 °C79 %1012.2 hPa16.1 kmEast (80°)11.1 km/hClear
11:54 PM26.7 °C22.8 °C79 %1011.9 hPa16.1 kmENE (70°)14.8 km/hClear
Hourly data recorded from PGUM, located 0 kilometers away from Agana, Guam







STORIES FROM OUR PARTNERS